Pontiac, MI

8:57 PM EDT on March 27, 2017 (GMT -0400)
Oakland County International

Weather History for KPTK - January, 2013

Change the Weather History Date:

Thursday, January 3, 2013

  Actual Average Record
Temperature  
Mean Temperature 22 °F -  
Max Temperature 28 °F 30 °F 55 °F (2004)
Min Temperature 15 °F 18 °F -5 °F (2014)
Degree Days  
Heating Degree Days 44    
Moisture  
Dew Point 16 °F    
Average Humidity 77    
Maximum Humidity 93    
Minimum Humidity 62    
Precipitation  
Precipitation 0.00 in - - ()
Snow  
Snow 0.00 in - - ()
Snow Depth 5.00 in    
Sea Level Pressure  
Sea Level Pressure 30.10 in    
Wind  
Wind Speed 8 mph (WSW)    
Max Wind Speed 16 mph    
Max Gust Speed 22 mph    
Visibility 7 miles    
Events Snow    
Averages and records for this station are not official NWS values.
T = Trace of Precipitation, MM = Missing Value Source: NWS Daily Summary

Daily Weather History Graph

Daily Weather History Graph

Search for Another Location

Airport or City:

Trip Planner

Search our weather history database for the weather conditions in past years. The results will help you decide how hot, cold, wet, or windy it might be!

Date:

Astronomy

Jan. 03, 2013 Rise Set
Actual Time 8:04 AM EST 5:12 PM EST
Civil Twilight 7:32 AM EST 5:44 PM EST
Nautical Twilight 6:56 AM EST 6:20 PM EST
Astronomical Twilight 6:22 AM EST 6:54 PM EST
Moon 11:57 PM EST (1/3) 11:06 AM EST (1/3)
Length of Visible Light 10h 12m
Length of Day
9h 08m
Waning Gibbous, 65% of the Moon is Illuminated
Jan 3
Waning Gibbous
Jan 4
Last Quarter
Jan 11
New
Jan 18
First Quarter
Jan 26
Full

Hourly Weather History & Observations

Time (EST) Temp. Windchill Dew Point Humidity Pressure Visibility Wind Dir Wind Speed Gust Speed Precip Events Conditions
12:53 AM 21.9 °F 13.4 °F 17.1 °F 82% 30.16 in 8.0 mi SW 6.9 mph - 0.00 in   Overcast
1:51 AM 21.2 °F 13.6 °F 17.6 °F 86% 30.10 in 8.0 mi SW 5.8 mph - N/A   Overcast
1:53 AM 21.0 °F 12.4 °F 17.1 °F 85% 30.15 in 8.0 mi SW 6.9 mph - N/A   Overcast
2:39 AM 19.4 °F 11.5 °F 15.8 °F 86% 30.11 in 10.0 mi SSW 5.8 mph - N/A   Scattered Clouds
2:53 AM 19.0 °F 11.1 °F 14.0 °F 81% 30.16 in 10.0 mi SSW 5.8 mph - N/A   Partly Cloudy
3:53 AM 18.0 °F 11.1 °F 14.0 °F 84% 30.13 in 9.0 mi SSW 4.6 mph - N/A   Partly Cloudy
4:53 AM 17.1 °F 7.6 °F 8.1 °F 68% 30.11 in 10.0 mi SSW 6.9 mph - N/A   Overcast
5:53 AM 16.0 °F 5.3 °F 5.0 °F 62% 30.10 in 10.0 mi SSW 8.1 mph - N/A   Overcast
6:53 AM 16.0 °F 8.8 °F 6.1 °F 65% 30.09 in 10.0 mi SSW 4.6 mph - N/A   Overcast
7:10 AM 15.8 °F 8.6 °F 6.8 °F 68% 30.03 in 10.0 mi SW 4.6 mph - 0.00 in Snow Light Snow
7:53 AM 16.0 °F 6.3 °F 6.1 °F 65% 30.08 in 9.0 mi SSW 6.9 mph - 0.00 in   Overcast
8:14 AM 15.8 °F 7.2 °F 6.8 °F 68% 30.03 in 10.0 mi SSW 5.8 mph - N/A   Overcast
8:53 AM 17.1 °F 7.6 °F 7.0 °F 65% 30.09 in 10.0 mi SW 6.9 mph - N/A   Overcast
9:53 AM 18.0 °F 8.7 °F 10.0 °F 71% 30.09 in 9.0 mi SW 6.9 mph - 0.00 in Snow Light Snow
10:15 AM 19.4 °F 9.5 °F 10.4 °F 68% 30.05 in 8.0 mi SW 8.1 mph - 0.00 in Snow Light Snow
10:53 AM 19.9 °F 10.1 °F 12.0 °F 71% 30.10 in 7.0 mi SW 8.1 mph - 0.00 in Snow Light Snow
11:53 AM 21.9 °F 11.7 °F 15.1 °F 75% 30.07 in 7.0 mi WSW 9.2 mph - 0.00 in   Overcast
12:53 PM 23.0 °F 13.9 °F 17.1 °F 78% 30.06 in 7.0 mi SW 8.1 mph - N/A   Overcast
1:53 PM 25.0 °F 14.2 °F 19.9 °F 81% 30.05 in 5.0 mi West 11.5 mph - N/A   Haze
2:53 PM 26.1 °F 15.0 °F 21.9 °F 84% 30.06 in 4.0 mi West 12.7 mph - 0.00 in Snow Light Snow
3:53 PM 27.0 °F 17.3 °F 23.0 °F 85% 30.07 in 4.0 mi WSW 10.4 mph - 0.00 in Snow Light Snow
4:53 PM 27.0 °F 16.7 °F 23.0 °F 85% 30.09 in 3.0 mi West 11.5 mph - 0.00 in Snow Light Snow
5:24 PM 26.6 °F 16.2 °F 24.8 °F 93% 30.06 in 4.0 mi West 11.5 mph - 0.00 in Snow Light Snow
5:53 PM 28.0 °F 18.1 °F 24.1 °F 85% 30.12 in 4.0 mi West 11.5 mph - 0.00 in Snow Light Snow
6:25 PM 28.4 °F 19.1 °F 24.8 °F 86% 30.08 in 4.0 mi West 10.4 mph 19.6 mph 0.00 in Snow Light Snow
6:53 PM 28.0 °F 16.1 °F 23.0 °F 81% 30.14 in 5.0 mi West 16.1 mph 20.7 mph 0.00 in Snow Light Snow
7:53 PM 28.0 °F 16.5 °F 23.0 °F 81% 30.15 in 5.0 mi West 15.0 mph - 0.00 in Snow Light Snow
8:00 PM 28.4 °F 18.0 °F 23.0 °F 80% 30.11 in 5.0 mi WNW 12.7 mph - 0.00 in Snow Light Snow
8:53 PM 27.0 °F 15.2 °F 21.9 °F 81% 30.16 in 5.0 mi WNW 15.0 mph - 0.00 in Snow Light Snow
9:53 PM 27.0 °F 14.7 °F 21.0 °F 78% 30.16 in 7.0 mi West 16.1 mph 21.9 mph 0.00 in Snow Light Snow
10:53 PM 27.0 °F 16.7 °F 19.9 °F 75% 30.15 in 10.0 mi West 11.5 mph - 0.00 in   Overcast
11:38 PM 26.6 °F 18.2 °F 19.4 °F 74% 30.09 in 10.0 mi WSW 8.1 mph - N/A   Overcast
11:53 PM 26.1 °F 16.2 °F 19.0 °F 75% 30.13 in 10.0 mi WSW 10.4 mph - N/A   Mostly Cloudy